COSMOS 2024 (ETALON 2)

Last updated on Wed Jun 24 2026 00:03:44 GMT+0000 (Coordinated Universal Time)

1 20026U 89039C 26173.67001841 -.00000077 00000+0 00000+0 0 9998 2 20026 64.9310 310.3467 0020704 212.4034 158.4121 2.13204613288628
UTC large
Height (km)
Speed (km/s)
/
Latitude / Longitude
Inclination (degrees)
Orbital Period (minutes)
Azimuth
Elevation
Range (km)
Doppler Factor

Next 0 passes for location: London (51.5072 / 0.1276)

No passes found over London.
COSMOS 2024 (ETALON 2)